Flag Weather past 2 weeks in Bridgeport, Connecticut, U.S.A.

Now
42 °F

Overcast.


Feels Like: 34 °F
Forecast: 27 / 42 °F
Wind: 17 mph from Southwest

Location: Sikorsky Memorial Airport

Current Time: Nov 22, 2014 at 4:41:15 PM

Latest Report: Nov 22, 2014 at 3:52 PM


Visibility: 10 mi

Pressure: 30.25 "Hg

Humidity: 41%

Dew point: 20 °F

Location of BridgeportLocation

Historic Weather in Bridgeport — Graph

°F

Bridgeport temperature yesterday

Maximum temperature yesterday: 37 °F (at 12:52 PM)
Minimum temperature yesterday: 28 °F (at 4:52 AM)
Average temperature yesterday: 32 °F

Past Weeks' High & Low Weather Summary

 TemperatureHumidityPressure
High61 °F (Nov 11, 1:52 PM)100% (Nov 11, 10:52 PM)30.49 "Hg (Nov 11, 10:52 PM)
Low23 °F (Nov 19, 2:52 AM)28% (Nov 18, 1:52 PM)29.48 "Hg (Nov 17, 7:52 PM)
Average41 °F62%30.05 "Hg
* Reported Nov 7 2:52 PM — Nov 22 2:52 PM, Bridgeport, Weather by CustomWeather, © 2014

Note: Actual official high and low records may vary slightly from our data, if they occured in-between our weather recording intervals... More about our weather records

Advertising

Bridgeport weather history for previous 24 hours

 ConditionsComfort  
Time TempWeatherWind HumidityBarometerVisibility
2:52 PM
Nov 22
42 °FSunny.18 mph39%30.27 "Hg10 mi
1:52 PM41 °FSunny.14 mph43%30.29 "Hg10 mi
12:52 PM39 °FSunny.22 mph46%30.32 "Hg10 mi
11:52 AM39 °FSunny.17 mph45%30.36 "Hg10 mi
10:52 AM36 °FSunny.13 mph44%30.39 "Hg10 mi
9:52 AM35 °FSunny.14 mph46%30.44 "Hg10 mi
8:52 AM34 °FSunny.14 mph46%30.45 "Hg10 mi
7:52 AM30 °FSunny.9 mph56%30.47 "Hg10 mi
6:52 AM25 °FSunny.5 mph66%30.47 "Hg10 mi
5:52 AM26 °FClear.No wind57%30.47 "Hg10 mi
4:52 AM26 °FClear.5 mph57%30.47 "Hg10 mi
3:52 AM27 °FClear.5 mph55%30.47 "Hg10 mi
2:52 AM27 °FClear.5 mph55%30.48 "Hg10 mi
1:52 AM29 °FClear.6 mph51%30.48 "Hg10 mi
12:52 AM29 °FClear.7 mph49%30.49 "Hg10 mi
11:52 PM
Nov 21
29 °FClear.6 mph51%30.48 "Hg10 mi
10:52 PM29 °FClear.6 mph47%30.48 "Hg10 mi
9:52 PM28 °FClear.7 mph51%30.48 "Hg10 mi
8:52 PM29 °FClear.7 mph49%30.47 "Hg10 mi
7:52 PM30 °FClear.7 mph45%30.45 "Hg10 mi
6:52 PM31 °FClear.7 mph45%30.45 "Hg10 mi
5:52 PM33 °FClear.8 mph36%30.42 "Hg10 mi
4:52 PM34 °FClear.14 mph34%30.37 "Hg10 mi
Weather by CustomWeather, © 2014

See weather overviewHow to use our weather pages